Location: Unspecified
(50.7693°N, 0.0000°E)
Time: 14:08:54
(UTC+00:00)

Transit 2A - Pass Details

Date: 03 July 2019
Orbit: 594 x 965 km, 66.7° (Epoch: 17 July)

Event Time Altitude Azimuth Distance (km) Brightness Sun altitude
Rises 22:44:48 0° 234° (SW) 3,644 9.3 -14.2°
Reaches altitude 10° 22:47:28 10° 239° (WSW) 2,695 8.7 -14.4°
Maximum altitude 22:53:40 53° 315° (NW) 1,140 7.2 -14.7°
Drops below altitude 10° 22:59:36 10° 33° (NNE) 2,573 9.3 -14.9°
Sets 23:02:06 0° 38° (NE) 3,467 9.9 -15.0°
